Home > Time Zones > World Clock > Weather > U.S.A. > Nome > Past weeks

Flag for U.S.A. Weather past 2 weeks in Nome, Alaska, U.S.A.

Now
46 °F

Light rain. Fog.


Feels Like: 38 °F
Forecast: 43 / 48 °F
Wind: 23 mph from East

Location: Nome Airport

Current Time: May 23, 2015 at 7:46:21 AM

Latest Report: May 23, 2015 at 6:53 AM


Visibility: 6 mi

Pressure: 29.65 "Hg

Humidity: 96%

Dew point: 45 °F

Location of NomeLocation

Historic Weather in Nome — Graph

°F

Nome temperature yesterday

Maximum temperature yesterday: 58 °F (at 6:53 PM)
Minimum temperature yesterday: 29 °F (at 3:53 AM)
Average temperature yesterday: 44 °F

Past Weeks' High & Low Weather Summary

 TemperatureHumidityPressure
High58 °F (May 22, 6:53 PM)100% (May 8, 6:01 AM)30.14 "Hg (May 8, 6:01 AM)
Low24 °F (May 9, 6:53 AM)60% (May 22, 6:53 PM)29.50 "Hg (May 13, 3:53 PM)
Average39 °F90%29.81 "Hg
* Reported May 8 6:01 AM — May 23 6:53 AM, Nome, Weather by CustomWeather, © 2015

Note: Actual official high and low records may vary slightly from our data, if they occured in-between our weather recording intervals... More about our weather records

Advertising

Nome weather history for previous 24 hours

 ConditionsComfort  
Time TempWeatherWind HumidityBarometerVisibility
6:53 AM
Sat, May 23
46 °FLight rain. Fog.23 mph96%29.65 "Hg6 mi
5:53 AM47 °FLight rain. Mostly cloudy.17 mph97%29.65 "Hg7 mi
4:53 AM48 °FLight rain. Mostly cloudy.12 mph93%29.67 "Hg10 mi
3:53 AM46 °FMostly cloudy.3 mph96%29.71 "Hg10 mi
3:00 AM44 °FMostly cloudy.5 mph96%29.74 "Hg10 mi
2:53 AM44 °FMostly cloudy.6 mph96%29.74 "Hg10 mi
1:53 AM45 °FMore clouds than sun.9 mph93%29.75 "Hg10 mi
12:53 AM45 °FMostly cloudy.8 mph93%29.77 "Hg10 mi
11:53 PM
Fri, May 22
45 °FOvercast.12 mph93%29.77 "Hg10 mi
10:53 PM51 °FLight rain. Mostly cloudy.12 mph89%29.77 "Hg10 mi
9:53 PM52 °FLight rain. Mostly cloudy.10 mph86%29.79 "Hg7 mi
8:53 PM53 °FLight rain. Mostly cloudy.10 mph80%29.81 "Hg8 mi
7:53 PM57 °FLight rain. Mostly cloudy.15 mph62%29.83 "Hg10 mi
6:53 PM58 °FMostly cloudy.16 mph60%29.87 "Hg10 mi
5:53 PM57 °FScattered clouds.21 mph64%29.90 "Hg10 mi
4:53 PM56 °FSunny.22 mph67%29.93 "Hg10 mi
3:53 PM55 °FScattered clouds.21 mph69%29.96 "Hg10 mi
2:53 PM51 °FOvercast.21 mph74%29.98 "Hg10 mi
1:53 PM50 °FBroken clouds.18 mph74%30.00 "Hg10 mi
12:53 PM48 °FBroken clouds.18 mph77%30.02 "Hg10 mi
11:53 AM46 °FBroken clouds.18 mph77%30.04 "Hg10 mi
10:53 AM43 °FMostly cloudy.20 mph79%30.06 "Hg10 mi
9:53 AM40 °FBroken clouds.17 mph80%30.08 "Hg10 mi
8:53 AM37 °FMostly cloudy.9 mph82%30.09 "Hg10 mi
7:53 AM35 °FBroken clouds.8 mph85%30.11 "Hg10 mi
Weather by CustomWeather, © 2015

See weather overviewHow to use our weather pages